Gunnison, CO

1:39 AM MST on November 21, 2017 (GMT -0700)
Gunnison County

Weather History for KGUC - December, 2013

Change the Weather History Date:

Friday, December 6, 2013

  Actual Average Record
Temperature  
Mean Temperature 0 °F -  
Max Temperature 10 °F 27 °F 46 °F (2003)
Min Temperature -11 °F 3 °F -20 °F (2005)
Degree Days  
Heating Degree Days 66    
Moisture  
Dew Point -21 °F    
Average Humidity 43    
Maximum Humidity 100    
Minimum Humidity 4    
Precipitation  
Precipitation 0.00 in - - ()
Sea Level Pressure  
Sea Level Pressure 29.97 in    
Wind  
Wind Speed 1 mph (NE)    
Max Wind Speed 7 mph    
Max Gust Speed -    
Visibility 9 miles    
Events      
Averages and records for this station are not official NWS values.
T = Trace of Precipitation, MM = Missing Value Source: NWS Daily Summary

Daily Weather History Graph

Daily Weather History Graph

Search for Another Location

Airport or City:

Trip Planner

Search our weather history database for the weather conditions in past years. The results will help you decide how hot, cold, wet, or windy it might be!

Date:

Astronomy

Dec. 06, 2013 Rise Set
Actual Time 7:11 AM MST 4:46 PM MST
Civil Twilight 6:41 AM MST 5:16 PM MST
Nautical Twilight 6:08 AM MST 5:49 PM MST
Astronomical Twilight 5:36 AM MST 6:21 PM MST
Moon 10:20 AM MST (12/6) 9:19 PM MST (12/6)
Length of Visible Light 10h 34m
Length of Day
9h 35m
Waxing Crescent, 20% of the Moon is Illuminated
Dec 6
Waxing Crescent
Dec 9
First Quarter
Dec 17
Full
Dec 25
Last Quarter
Jan 1
New

Hourly Weather History & Observations

Time (MST) Temp. Windchill Dew Point Humidity Pressure Visibility Wind Dir Wind Speed Gust Speed Precip Events Conditions
12:15 AM -2.2 °F - -2.2 °F 100% 29.87 in 3.0 mi Calm Calm - N/A   Overcast
12:35 AM -2.2 °F - - N/A% 29.86 in 4.0 mi Calm Calm - N/A   Mostly Cloudy
12:55 AM -2.2 °F - -29.2 °F 27% 29.86 in 5.0 mi Calm Calm - N/A   Mostly Cloudy
1:15 AM -2.2 °F - -27.4 °F 29% 29.86 in 8.0 mi Calm Calm - N/A   Scattered Clouds
1:55 AM -5.8 °F - -27.4 °F 35% 29.86 in 10.0 mi Calm Calm - N/A   Partly Cloudy
2:15 AM -5.8 °F -14.5 °F -23.8 °F 42% 29.87 in 10.0 mi NE 3.5 mph - N/A   Scattered Clouds
2:35 AM -4.0 °F - -20.2 °F 46% 29.87 in 10.0 mi Calm Calm - N/A   Partly Cloudy
2:55 AM -7.6 °F - -22.0 °F 50% 29.87 in 10.0 mi Calm Calm - N/A   Clear
3:15 AM -7.6 °F -16.5 °F -23.8 °F 45% 29.88 in 10.0 mi East 3.5 mph - N/A   Clear
3:55 AM -7.6 °F -16.5 °F -22.0 °F 50% 29.88 in 10.0 mi NE 3.5 mph - N/A   Mostly Cloudy
4:15 AM -7.6 °F - -7.6 °F 100% 29.88 in 7.0 mi Calm Calm - N/A   Partly Cloudy
4:35 AM -9.4 °F - - N/A% 29.88 in 8.0 mi Calm Calm - N/A   Clear
4:55 AM -7.6 °F - -20.2 °F 54% 29.89 in 1.8 mi Calm Calm - N/A   Clear
5:15 AM -7.6 °F - - N/A% 29.89 in 2.5 mi Calm Calm - N/A   Clear
5:35 AM -7.6 °F - - N/A% 29.89 in 5.0 mi Calm Calm - N/A   Scattered Clouds
5:55 AM -7.6 °F - - N/A% 29.90 in 2.5 mi Calm Calm - N/A   Mostly Cloudy
6:15 AM -7.6 °F - - N/A% 29.91 in 3.0 mi Calm Calm - N/A   Scattered Clouds
6:35 AM -7.6 °F - -29.2 °F 34% 29.91 in 5.0 mi Calm Calm - N/A   Clear
6:55 AM -9.4 °F -18.6 °F -31.0 °F 34% 29.92 in 4.0 mi North 3.5 mph - N/A   Clear
7:15 AM -11.2 °F - - N/A% 29.93 in 3.0 mi Calm Calm - N/A   Clear
7:35 AM -11.2 °F - - N/A% 29.94 in 3.0 mi Calm Calm - N/A   Clear
8:35 AM -11.2 °F -20.6 °F -23.8 °F 54% 29.97 in 10.0 mi East 3.5 mph - N/A   Clear
8:55 AM -9.4 °F -18.6 °F -22.0 °F 54% 29.98 in 10.0 mi East 3.5 mph - N/A   Clear
9:15 AM -9.4 °F -18.6 °F -16.6 °F 71% 29.98 in 10.0 mi East 3.5 mph - N/A   Clear
9:35 AM -7.6 °F - -20.2 °F 54% 29.98 in 10.0 mi Calm Calm - N/A   Clear
9:55 AM -5.8 °F - -7.6 °F 92% 29.99 in 10.0 mi Calm Calm - N/A   Partly Cloudy
10:15 AM -5.8 °F - -27.4 °F 35% 30.00 in 10.0 mi Calm Calm - N/A   Partly Cloudy
10:35 AM -2.2 °F - - N/A% 30.00 in 10.0 mi Calm Calm - N/A   Scattered Clouds
10:55 AM -2.2 °F - - N/A% 30.00 in 10.0 mi Calm Calm - N/A   Mostly Cloudy
11:15 AM -0.4 °F - -29.2 °F 25% 29.99 in 10.0 mi Calm Calm - N/A   Mostly Cloudy
11:35 AM 1.4 °F - -23.8 °F 30% 29.98 in 10.0 mi Calm Calm - N/A   Mostly Cloudy
11:55 AM 3.2 °F - -22.0 °F 30% 29.98 in 10.0 mi Calm Calm - N/A   Partly Cloudy
12:15 PM 3.2 °F -4.2 °F -20.2 °F 33% 29.97 in 10.0 mi SE 3.5 mph - N/A   Partly Cloudy
12:35 PM 3.2 °F - -16.6 °F 39% 29.97 in 10.0 mi Calm Calm - N/A   Clear
1:15 PM 6.8 °F - -95.8 °F 4% 29.97 in 10.0 mi Calm Calm - N/A   Partly Cloudy
1:35 PM 6.8 °F -0.1 °F -18.4 °F 31% 29.96 in 10.0 mi ESE 3.5 mph - N/A   Partly Cloudy
1:55 PM 6.8 °F -0.1 °F -22.0 °F 26% 29.96 in 10.0 mi ESE 3.5 mph - N/A   Scattered Clouds
2:15 PM 8.6 °F - -22.0 °F 24% 29.96 in 10.0 mi Calm Calm - N/A   Scattered Clouds
2:35 PM 8.6 °F -2.6 °F -18.4 °F 28% 29.95 in 10.0 mi North 6.9 mph - N/A   Scattered Clouds
2:55 PM 8.6 °F 2.0 °F -14.8 °F 34% 29.96 in 10.0 mi North 3.5 mph - N/A   Partly Cloudy
3:15 PM 10.4 °F - -9.4 °F 41% 29.96 in 10.0 mi Calm Calm - N/A   Mostly Cloudy
3:35 PM 10.4 °F 4.0 °F -7.6 °F 44% 29.97 in 10.0 mi North 3.5 mph - N/A   Overcast
4:15 PM 10.4 °F 2.2 °F -9.4 °F 41% 29.97 in 10.0 mi NNW 4.6 mph - N/A   Clear
4:35 PM 8.6 °F 0.1 °F - N/A% 29.97 in 10.0 mi North 4.6 mph - N/A   Clear
4:55 PM 6.8 °F - -11.2 °F 44% 29.98 in 10.0 mi Calm Calm - N/A   Clear
5:15 PM 5.0 °F -4.1 °F -14.8 °F 40% 29.98 in 10.0 mi NNW 4.6 mph - N/A   Clear
5:55 PM 1.4 °F -9.9 °F -20.2 °F 36% 29.99 in 10.0 mi NNW 5.8 mph - N/A   Clear
6:15 PM -0.4 °F - -25.6 °F 30% 30.01 in 10.0 mi Calm Calm - N/A   Clear
6:35 PM -0.4 °F -10.4 °F -31.0 °F 22% 30.02 in 10.0 mi North 4.6 mph - N/A   Clear
6:55 PM -0.4 °F -10.4 °F -27.4 °F 27% 30.03 in 10.0 mi North 4.6 mph - N/A   Clear
7:15 PM -2.2 °F -10.4 °F -25.6 °F 32% 30.03 in 10.0 mi North 3.5 mph - N/A   Clear
7:35 PM -2.2 °F -10.4 °F -20.2 °F 42% 30.04 in 10.0 mi NE 3.5 mph - N/A   Clear
7:55 PM -0.4 °F - -11.2 °F 60% 30.04 in 10.0 mi Calm Calm - N/A   Clear
8:15 PM -4.0 °F -14.6 °F -22.0 °F 42% 30.04 in 10.0 mi ENE 4.6 mph - N/A   Clear
8:35 PM -2.2 °F -12.5 °F -2.2 °F 100% 30.05 in 10.0 mi ENE 4.6 mph - N/A   Clear
8:55 PM -0.4 °F - - N/A% 30.05 in 10.0 mi Calm Calm - N/A   Partly Cloudy
9:15 PM -2.2 °F -10.4 °F -27.4 °F 29% 30.05 in 10.0 mi ESE 3.5 mph - N/A   Mostly Cloudy
9:35 PM -2.2 °F - -25.6 °F 32% 30.05 in 10.0 mi Calm Calm - N/A   Overcast
9:55 PM -2.2 °F - -25.6 °F 32% 30.05 in 10.0 mi Calm Calm - N/A   Partly Cloudy
10:15 PM -2.2 °F -10.4 °F -23.8 °F 35% 30.06 in 10.0 mi SSE 3.5 mph - N/A   Clear
10:35 PM -0.4 °F - -22.0 °F 36% 30.05 in 10.0 mi Calm Calm - N/A   Clear
10:55 PM -0.4 °F - -18.4 °F 43% 30.06 in 10.0 mi Calm Calm - N/A   Clear
11:15 PM -0.4 °F - -14.8 °F 51% 30.06 in 10.0 mi Calm Calm - N/A   Clear
11:35 PM -0.4 °F - -14.8 °F 51% 30.06 in 10.0 mi Calm Calm - N/A   Clear
11:55 PM -0.4 °F - -9.4 °F 66% 30.06 in 10.0 mi Calm Calm - N/A   Clear